STARLINK-11207 [DTC]

Last updated on Tue Oct 01 2024 00:02:04 GMT+0000 (Coordinated Universal Time)

1 60933U 24155K 24273.80739841 -.00002702 00000+0 -12516-4 0 9997 2 60933 53.1549 53.8913 0001297 52.6455 307.4683 15.76725008 5800
UTC large
Height (km)
Speed (km/s)
/
Latitude / Longitude
Inclination (degrees)
Orbital Period (minutes)
Azimuth
Elevation
Range (km)
Doppler Factor

Next 0 passes for location: London (51.5072 / 0.1276)

Sorry there are no passes over London.